timestamp,surface_pressure_avg,surface_temp_avg,battery_voltage,lat,long
2021-08-24 00:09:01+00:00,359.3912,17.8,12.73,47.84626,-54.09684
2021-08-24 00:19:01+00:00,362.2079,17.8,12.73,47.84626,-54.09684
2021-08-24 00:29:01+00:00,363.2546,17.8,12.73,47.84626,-54.09684
2021-08-24 00:39:01+00:00,365.6097,17.8,12.73,47.84626,-54.09684
2021-08-24 00:49:01+00:00,368.1313,17.8,12.73,47.84626,-54.09684
2021-08-24 00:59:01+00:00,366.6162,17.8,12.73,47.84626,-54.09684
2021-08-24 01:09:01+00:00,364.1329,17.8,12.73,47.84626,-54.09684
2021-08-24 01:19:01+00:00,363.1246,17.8,12.73,47.84626,-54.09684
2021-08-24 01:29:01+00:00,361.0529,17.8,12.73,47.84626,-54.09684
2021-08-24 01:39:01+00:00,355.968,17.8,12.73,47.84626,-54.09684
2021-08-24 01:49:01+00:00,352.588,17.8,12.73,47.84626,-54.09684
2021-08-24 01:59:01+00:00,350.5764,17.8,12.73,47.84626,-54.09684
2021-08-24 02:09:01+00:00,345.358,17.8,12.73,47.84626,-54.09684
2021-08-24 02:19:00+00:00,341.9863,17.8,12.73,47.84626,-54.09684
2021-08-24 02:29:00+00:00,340.223,17.8,12.73,47.84626,-54.09684
2021-08-24 02:39:00+00:00,335.9396,17.8,12.73,47.84626,-54.09684
2021-08-24 02:49:00+00:00,326.4913,17.8,12.73,47.84626,-54.09684
2021-08-24 02:59:00+00:00,320.5081,17.8,12.73,47.84626,-54.09684
2021-08-24 03:09:00+00:00,315.7297,17.8,12.73,47.84626,-54.09684
2021-08-24 03:19:00+00:00,304.0747,17.8,12.73,47.84626,-54.09684
2021-08-24 03:29:00+00:00,292.3214,17.8,12.73,47.84626,-54.09684
2021-08-24 03:39:00+00:00,286.2014,17.8,12.73,47.84626,-54.09684
2021-08-24 03:49:00+00:00,280.113,17.8,12.73,47.84626,-54.09684
2021-08-24 03:59:00+00:00,267.0931,17.8,12.73,47.84626,-54.09684
2021-08-24 04:09:00+00:00,254.9814,17.8,12.73,47.84626,-54.09684
2021-08-24 04:19:01+00:00,246.6064,17.8,12.73,47.84626,-54.09684
2021-08-24 04:29:01+00:00,239.8164,17.8,12.73,47.84626,-54.09684
2021-08-24 04:39:01+00:00,228.4214,17.79,12.73,47.84626,-54.09684
2021-08-24 04:49:01+00:00,218.6482,17.79,12.73,47.84626,-54.09684
2021-08-24 04:59:01+00:00,212.2081,17.79,12.73,47.84626,-54.09684
2021-08-24 05:09:01+00:00,203.8848,17.79,12.73,47.84626,-54.09684
2021-08-24 05:19:00+00:00,194.5298,17.78,12.73,47.84626,-54.09684
2021-08-24 05:29:00+00:00,189.4931,17.78,12.73,47.84626,-54.09684
2021-08-24 05:39:00+00:00,185.8648,17.77,12.73,47.84626,-54.09684
2021-08-24 05:49:00+00:00,181.2215,17.76,12.73,47.84626,-54.09684
2021-08-24 05:59:00+00:00,174.9348,17.75,12.73,47.84626,-54.09684
2021-08-24 06:09:00+00:00,172.4115,17.74,12.73,47.84626,-54.09684
2021-08-24 06:19:01+00:00,172.6848,17.72,12.73,47.84626,-54.09684
2021-08-24 06:29:01+00:00,172.0265,17.7,12.73,47.84626,-54.09684
2021-08-24 06:39:01+00:00,174.0865,17.7,12.73,47.84626,-54.09684
2021-08-24 06:49:01+00:00,177.2065,17.7,12.73,47.84626,-54.09684
2021-08-24 06:59:01+00:00,178.6031,17.7,12.73,47.84626,-54.09684
2021-08-24 07:09:01+00:00,181.6998,17.7,12.73,47.84626,-54.09684
2021-08-24 07:19:00+00:00,184.2348,17.7,12.73,47.84626,-54.09684
2021-08-24 07:29:00+00:00,184.2348,17.7,12.73,47.84626,-54.09684
2021-08-24 07:39:00+00:00,186.5065,17.7,12.73,47.84626,-54.09684
2021-08-24 07:49:00+00:00,191.4798,17.7,12.73,47.84626,-54.09684
2021-08-24 07:59:00+00:00,194.7315,17.7,12.73,47.84626,-54.09684
2021-08-24 08:09:00+00:00,197.3698,17.7,12.73,47.84626,-54.09684
2021-08-24 08:19:01+00:00,202.8281,17.7,12.65,47.84626,-54.09684
2021-08-24 08:29:01+00:00,206.9248,17.69,12.65,47.84626,-54.09684
2021-08-24 08:39:01+00:00,211.1281,17.7,12.65,47.84626,-54.09684
2021-08-24 08:49:01+00:00,218.2115,17.7,12.65,47.84626,-54.09684
2021-08-24 08:59:01+00:00,223.3948,17.7,12.65,47.84626,-54.09684
2021-08-24 09:09:01+00:00,225.2714,17.7,12.65,47.84626,-54.09684
2021-08-24 09:19:01+00:00,229.6364,17.7,12.65,47.84626,-54.09684
2021-08-24 09:29:01+00:00,237.7264,17.7,12.65,47.84626,-54.09684
2021-08-24 09:39:01+00:00,244.6697,17.7,12.65,47.84626,-54.09684
2021-08-24 09:49:01+00:00,249.2264,17.7,12.65,47.84626,-54.09684
2021-08-24 09:59:01+00:00,255.8347,17.7,12.65,47.84626,-54.09684
2021-08-24 10:09:01+00:00,263.2231,17.7,12.65,47.84626,-54.09684
2021-08-24 10:19:01+00:00,270.6214,17.7,12.81,47.84626,-54.09684
2021-08-24 10:29:01+00:00,275.3281,17.7,12.81,47.84626,-54.09684
2021-08-24 10:39:01+00:00,281.0181,17.7,12.81,47.84626,-54.09684
2021-08-24 10:49:01+00:00,287.1313,17.73,12.81,47.84626,-54.09684
2021-08-24 10:59:01+00:00,295.8664,17.75,12.81,47.84626,-54.09684
2021-08-24 11:09:01+00:00,301.118,17.76,12.81,47.84626,-54.09684
2021-08-24 11:19:01+00:00,308.3497,17.79,13.29,47.84626,-54.09684
2021-08-24 11:29:01+00:00,319.363,17.79,13.29,47.84626,-54.09684
2021-08-24 11:39:01+00:00,329.2047,17.8,13.29,47.84626,-54.09684
2021-08-24 11:49:01+00:00,333.30800000000005,17.8,13.29,47.84626,-54.09684
2021-08-24 11:59:01+00:00,337.9796,17.8,13.29,47.84626,-54.09684
2021-08-24 12:09:01+00:00,347.0846,17.8,13.29,47.84626,-54.09684
2021-08-24 12:19:01+00:00,350.233,17.8,13.44,47.84626,-54.09684
2021-08-24 12:29:01+00:00,348.973,17.8,13.44,47.84626,-54.09684
2021-08-24 12:39:01+00:00,353.898,17.8,13.44,47.84626,-54.09684
2021-08-24 12:49:01+00:00,359.5596,17.8,13.44,47.84626,-54.09684
2021-08-24 12:59:01+00:00,357.8496,17.8,13.44,47.84626,-54.09684
2021-08-24 13:09:01+00:00,357.423,17.8,13.44,47.84626,-54.09684
2021-08-24 13:19:01+00:00,359.8363,17.8,14.4,47.84626,-54.09684
2021-08-24 13:29:01+00:00,360.0079,17.8,14.4,47.84626,-54.09684
2021-08-24 13:39:01+00:00,355.338,17.8,14.4,47.84626,-54.09684
2021-08-24 13:49:01+00:00,354.3146,17.8,14.4,47.84626,-54.09684
2021-08-24 13:59:01+00:00,351.6313,17.8,14.4,47.84626,-54.09684
2021-08-24 14:09:01+00:00,345.8496,17.8,14.4,47.84626,-54.09684
2021-08-24 14:19:01+00:00,341.8029,17.8,14.32,47.84626,-54.09684
2021-08-24 14:29:01+00:00,342.3346,17.8,14.32,47.84626,-54.09684
2021-08-24 14:39:01+00:00,337.9163,17.8,14.32,47.84626,-54.09684
2021-08-24 14:49:01+00:00,329.2112,17.8,14.32,47.84626,-54.09684
2021-08-24 14:59:01+00:00,324.8563,17.8,14.32,47.84626,-54.09684
2021-08-24 15:09:01+00:00,322.4913,17.8,14.32,47.84626,-54.09684
2021-08-24 15:19:01+00:00,314.8679,17.8,14.24,47.84626,-54.09684
2021-08-24 15:29:01+00:00,307.618,17.8,14.24,47.84626,-54.09684
2021-08-24 15:39:01+00:00,302.603,17.81,14.24,47.84626,-54.09684
2021-08-24 15:49:01+00:00,293.788,17.84,14.24,47.84626,-54.09684
2021-08-24 15:59:01+00:00,281.7364,17.89,14.24,47.84626,-54.09684
2021-08-24 16:09:01+00:00,273.303,17.9,14.24,47.84626,-54.09684
2021-08-24 16:19:01+00:00,268.2381,17.9,14.16,47.84626,-54.09684
2021-08-24 16:29:01+00:00,258.1814,17.9,14.16,47.84626,-54.09684
2021-08-24 16:39:01+00:00,246.0214,17.93,14.16,47.84626,-54.09684
2021-08-24 16:49:01+00:00,239.0881,17.98,14.16,47.84626,-54.09684
2021-08-24 16:59:01+00:00,233.4865,18.0,14.16,47.84626,-54.09684
2021-08-24 17:09:01+00:00,223.9781,18.0,14.16,47.84626,-54.09684
2021-08-24 17:19:01+00:00,214.2564,18.0,13.53,47.84626,-54.09684
2021-08-24 17:29:01+00:00,208.2681,18.0,13.53,47.84626,-54.09684
2021-08-24 17:39:01+00:00,204.2214,18.0,13.53,47.84626,-54.09684
2021-08-24 17:49:01+00:00,197.7032,18.0,13.53,47.84626,-54.09684
2021-08-24 17:59:01+00:00,191.2581,18.0,13.53,47.84626,-54.09684
2021-08-24 18:09:01+00:00,186.2415,18.0,13.53,47.84626,-54.09684
2021-08-24 18:19:01+00:00,183.0981,18.0,13.37,47.84626,-54.09684
2021-08-24 18:29:01+00:00,183.6548,18.0,13.37,47.84626,-54.09684
2021-08-24 18:39:01+00:00,181.7032,18.02,13.37,47.84626,-54.09684
2021-08-24 18:49:01+00:00,177.9164,18.05,13.37,47.84626,-54.09684
2021-08-24 18:59:01+00:00,178.7381,18.08,13.37,47.84626,-54.09684
2021-08-24 19:09:01+00:00,181.0248,18.1,13.37,47.84626,-54.09684
2021-08-24 19:19:01+00:00,180.2298,18.1,13.37,47.84626,-54.09684
2021-08-24 19:29:01+00:00,181.0364,18.1,13.37,47.84626,-54.09684
2021-08-24 19:39:01+00:00,185.0748,18.11,13.37,47.84626,-54.09684
2021-08-24 19:49:01+00:00,189.7381,18.1,13.37,47.84626,-54.09684
2021-08-24 19:59:01+00:00,192.9098,18.1,13.37,47.84626,-54.09684
2021-08-24 20:09:01+00:00,197.4348,18.1,13.37,47.84626,-54.09684
2021-08-24 20:19:01+00:00,207.8281,18.1,13.13,47.84626,-54.09684
2021-08-24 20:29:01+00:00,216.4781,18.1,13.13,47.84626,-54.09684
2021-08-24 20:39:01+00:00,219.9264,18.1,13.13,47.84626,-54.09684
2021-08-24 20:49:01+00:00,222.8381,18.1,13.13,47.84626,-54.09684
2021-08-24 20:59:01+00:00,228.9931,18.1,13.13,47.84626,-54.09684
2021-08-24 21:09:01+00:00,236.2331,18.1,13.13,47.84626,-54.09684
2021-08-24 21:19:01+00:00,241.0031,18.1,12.81,47.84626,-54.09684
2021-08-24 21:29:01+00:00,245.0614,18.1,12.81,47.84626,-54.09684
2021-08-24 21:39:01+00:00,250.2231,18.1,12.81,47.84626,-54.09684
2021-08-24 21:49:01+00:00,257.2197,18.1,12.81,47.84626,-54.09684
2021-08-24 21:59:01+00:00,264.993,18.1,12.81,47.84626,-54.09684
2021-08-24 22:09:01+00:00,268.9548,18.1,12.81,47.84626,-54.09684
2021-08-24 22:19:01+00:00,274.2414,18.1,12.73,47.84626,-54.09684
2021-08-24 22:29:01+00:00,282.5097,18.1,12.73,47.84626,-54.09684
2021-08-24 22:39:01+00:00,288.9948,18.1,12.73,47.84626,-54.09684
2021-08-24 22:49:01+00:00,290.873,18.1,12.73,47.84626,-54.09684
2021-08-24 22:59:01+00:00,298.1414,18.1,12.73,47.84626,-54.09684
2021-08-24 23:09:01+00:00,308.4263,18.1,12.73,47.84626,-54.09684
2021-08-24 23:19:01+00:00,316.9597,18.1,12.73,47.84626,-54.09684
2021-08-24 23:29:01+00:00,323.1663,18.1,12.73,47.84626,-54.09684
2021-08-24 23:39:01+00:00,330.8412,18.1,12.73,47.84626,-54.09684
2021-08-24 23:49:01+00:00,341.8463,18.1,12.73,47.84626,-54.09684
2021-08-24 23:59:01+00:00,349.1679,18.11,12.73,47.84626,-54.09684
